Location: Staunton
(38.1490°N, 79.0720°W)
Time: 10:36:41
(UTC-04:00)

ISS - Pass Details

Date: 22 October 2021
Orbit: 417 x 423 km, 51.6° (Epoch: 23 October)

Event Time Altitude Azimuth Distance (km) Brightness Sun altitude
Exits shadow 05:37:48 17° 159° (SSE) 1,129 -1.4 -23.1°
Maximum altitude 05:38:56 20° 131° (SE) 1,018 -1.3 -22.9°
Drops below altitude 10° 05:41:30 10° 81° (E) 1,497 0.2 -22.4°
Sets 05:43:57 0° 64° (ENE) 2,363 1.2 -21.9°
